THOR ABLESTAR DEB, 5786

Orbit data source: Space-Track

THOR ABLESTAR DEB, 5786 is space debris in LEO originally from a launch on Thu, 29 Jun 1961 UTC launched from the Air Force Eastern Test Range (AFETR). Debris objects in space refer to the collection of defunct objects orbiting the Earth. Examples of debris include non-operational satellites, rocket bodies, and fragments generated from explosions, collisions, or faulty payload assembly.

Loading next visibility...
Identifier
5786, 1961-015KA
Orbit
LEO
Country
Flag of USUS
Related business
Manufacturer
Unknown
Mission
Spacecraft
Bus & Motor
Unknown
Mass
Unknown
Launch date (UTC)
1961-06-29 (65 years ago)
Launch vehicle
Unknown
Launch site
Air Force Eastern Test Range (AFETR)
Object type
Payload
Rocket body
Debris
Shape & HBR
Unknown shape, 0.1 m
Radar Cross Section
Small (<0.1 m²)

Expand to show TLE details & history
Last TLE update: 11 hours ago

TLE from 11 hours ago
0 THOR ABLESTAR DEB
1  5786U 61015KA  26121.26737212  .00000714  00000-0  48413-3 0  9996
2  5786  67.1217  73.7422 0120109 189.3807 170.5038 14.02259527267989
Epoch: 2026-05-01T06:25Z
TLE epoch observation values (Epoch: 2026-05-01T06:25:00.951Z)
Latitude
-0.00002°
Longitude
118.28615°
Altitude
974.184 km
Speed
7.321 km/s
True Right ascension
04h 54m 58s
True Declination
0° 00' 00"
Sunlit
Object was in daylight at epoch
Visualization orbit readout
Latitude
Unknown
Longitude
Unknown
Altitude
Unknown
Speed
Unknown
Apparent Right ascension
Unknown
Apparent Declination
Unknown
Sunlit
N/A
Visualization observer readout
Local Sidereal Time
01:10:49
Azimuth
Unknown
Elevation
Unknown
Doppler factor
Unknown
Orbital elements
Apogee altitude
971.558 km
Perigee altitude
797.1 km
Semi-major axis
7,262.466 km
Eccentricity
0.01201
Inclination
67.1217°
RAAN
73.7422°
Arg. of periapsis
189.3807°
True anomaly
170.72756°
Mean anomaly
170.5038°
Eccentric anomaly
170.61601°
Mean motion
3.50685 °/min
Orbital period
102.66 mins
BSTAR
0.00048413
Loading maneuver chart data...
Computing Atmospheric mass density...
Loading historical data...
Loading historical data...
Loading historical data...
Loading historical data...
Loading historical data...
Loading historical data...
Loading historical data...

Documentation

Showing up to 5 results
|